Location: Bosdarros
(43.2167°N, 0.3667°W)
Time: 03:10:47
(UTC+00:00)

Cosmos 2026 Rocket - Pass Details

Date: 22 April 2021
Orbit: 939 x 1001 km, 82.9° (Epoch: 15 May)

Event Time Altitude Azimuth Distance (km) Brightness Sun altitude
Rises 19:31:34 0° 353° (N) 3,614 7.5 -7.4°
Reaches altitude 10° 19:34:04 10° 356° (N) 2,669 6.7 -7.8°
Maximum altitude 19:40:09 73° 81° (E) 993 3.9 -8.8°
Drops below altitude 10° 19:46:16 10° 166° (SSE) 2,683 5.9 -9.8°
Sets 19:48:47 0° 168° (SSE) 3,634 6.6 -10.2°
